[[{"header":{"parameterUnit":"m.s-1","parameterCategory":1,"la1":30.2991,"la2":30.254,"lo1":-89.0895,"lo2":-89.0444,"dy":0.0017,"dx":0.0017,"nx":28,"ny":28,"refTime":"2024-11-27T09:00:00:Z","depth":0,"parameterNumber":2,"parameterNumberName":"U-component_of_WINDS"},"data":[0,0,0,0,0,0,0,0,0,0,0,0,0,0,0,0,0,0,0,0,0,0,0,0,0,0,0,0,0,0,0,0,0,0,0,0,0,0,0,0,0,0,0,0,0,0,0,0,0,0,0,0,0,0,0,0,0,0,2.099,2.0992,0,2.1176,2.1179,2.1181,2.1213,2.1212,2.121,2.1209,2.1405,2.1411,2.1418,0,0,0,0,0,0,0,0,0,0,0,0,0,2.0671,2.0676,2.099,2.0993,2.0995,2.1176,2.1179,2.1181,2.1214,2.1212,2.121,2.1208,2.1403,2.1411,2.1419,0,0,0,0,0,0,0,0,0,0,0,0,0,2.0828,2.0678,2.099,2.1033,2.1038,2.1176,2.1179,2.1182,2.1214,2.1212,2.1209,2.1207,2.14,2.141,2.142,2.1529,0,0,2.145,2.1455,0,0,0,0,0,0,0,0,2.0819,2.084,2.1024,2.103,2.1037,2.1169,2.1138,2.1298,2.1215,2.1148,2.1209,2.1206,2.1329,2.1344,2.1385,2.1538,2.1546,2.1451,2.1457,2.1462,2.1465,0,0,0,0,0,0,0,2.0808,2.0832,2.1064,2.1027,2.1035,2.1045,2.1065,2.1169,2.1249,2.1153,2.1156,2.1177,2.1332,2.1375,2.139,2.1549,2.1451,2.146,2.1466,2.147,2.1806,2.1809,0,0,0,0,0,0,2.0789,2.0823,2.1058,2.107,2.092,2.1053,2.1075,2.1129,2.1248,2.1264,2.1179,2.1178,2.1359,2.1378,2.1397,2.1535,2.1462,2.1471,2.1477,2.1804,2.1807,2.181,0,0,0,0,0,0,2.0782,2.081,2.1051,2.0947,2.0979,2.1061,2.1121,2.1134,2.1177,2.1268,2.1283,2.1208,2.1358,2.1383,2.1496,2.1542,2.1476,2.1485,2.18,2.1805,2.1809,2.1811,0,0,0,0,0,0,2.0773,2.0807,2.0847,2.0948,2.0984,2.1145,2.1124,2.1139,2.1194,2.1194,2.1299,2.1314,2.1358,2.1481,2.1506,2.1555,2.1492,2.1796,2.1802,2.1807,2.1807,2.1815,2.1821,0,0,0,0,0,2.0761,2.0841,2.0849,2.0877,2.1036,2.1147,2.1168,2.1216,2.1197,2.124,2.1299,2.1311,2.1533,2.1493,2.1521,2.1573,2.1794,2.1801,2.1807,2.1804,2.1813,2.1821,0,0,0,0,0,0,2.0744,2.0854,2.0865,2.0979,2.1053,2.1152,2.1208,2.1224,2.1306,2.1303,2.1361,2.1384,2.1496,2.1546,2.1499,2.1688,2.1662,2.1675,2.165,2.166,2.1667,2.1653,2.1501,0,0,0,0,0,2.0753,2.0833,2.0926,2.1018,2.1054,2.1125,2.1175,2.1205,2.1285,2.1317,2.1384,2.1464,2.1552,2.1609,2.1694,2.1815,2.184,2.1865,2.1872,2.1878,2.1888,2.1959,2.1973,2.1832,2.1832,2.1832,0,0,2.0774,2.0844,2.0891,2.1016,2.1077,2.1161,2.1151,2.1239,2.1302,2.1331,2.1443,2.1495,2.1588,2.1706,2.1762,2.1752,2.1933,2.1886,2.1889,2.1898,2.1968,2.1981,2.1993,2.1836,2.1835,2.1835,0,0,2.0855,2.0914,2.0999,2.1061,2.1153,2.12,2.122,2.1318,2.1353,2.1466,2.1491,2.1569,2.1718,2.1784,2.1837,2.1946,2.1962,2.1973,2.201,2.2079,2.209,2.21,2.2142,2.2156,2.1983,2.1983,2.1983,0,2.0869,2.0993,2.1041,2.1128,2.1184,2.1214,2.1302,2.136,2.1477,2.1516,2.1503,2.1693,2.1758,2.1893,2.192,2.1961,2.1989,2.1961,2.2084,2.2095,2.2105,2.2146,2.2161,2.1984,2.1984,2.1983,2.1983,0,2.1008,2.1094,2.1152,2.1263,2.1326,2.1413,2.1476,2.1535,2.156,2.1609,2.1726,2.1804,2.1908,2.1943,2.1968,2.2084,2.2075,2.2072,2.2048,2.2119,2.2158,2.2174,2.1985,2.1985,2.1984,2.1984,0,0,2.1082,2.1219,2.124,2.1292,2.1398,2.1467,2.1558,2.1658,2.1708,2.1788,2.1868,2.1995,2.1995,2.2055,2.2089,2.2149,2.2235,2.214,2.2143,2.2157,2.237,2.2373,2.239,2.2245,2.2248,2.2251,2.2363,0,2.1177,2.1337,2.1383,2.1519,2.1602,2.1632,2.1712,2.1787,2.1836,2.1916,2.1971,2.2061,2.2051,2.2089,2.2149,2.2211,2.2278,2.2203,2.2323,2.2326,2.23,2.241,2.2412,2.2514,2.2379,2.2381,2.2383,0,2.1308,2.139,2.1534,2.1632,2.1668,2.1738,2.1836,2.191,2.1998,2.203,2.2099,2.2128,2.2228,2.2198,2.2338,2.2285,2.2338,2.2376,2.2381,2.2395,2.236,2.2429,2.2548,2.2564,2.2407,2.2405,2.2404,0,2.1351,2.1497,2.1603,2.1647,2.1763,2.1812,2.1864,2.1948,2.2007,2.2093,2.2132,2.2229,2.2283,2.2359,2.2416,2.2388,2.2552,2.2526,2.2584,2.2583,2.2618,2.2615,2.2749,2.2648,2.2648,2.2648,2.2647,0,2.1452,2.154,2.1624,2.1689,2.179,2.1844,2.1943,2.1996,2.2072,2.2151,2.2183,2.2257,2.2326,2.241,2.2456,2.2567,2.259,2.2621,2.2632,2.2619,2.2616,2.2655,2.265,2.2652,2.2651,2.265,2.2649,0,2.1517,2.1576,2.1694,2.1795,2.1823,2.1893,2.1981,2.2047,2.2098,2.2197,2.2224,2.2305,2.2406,2.2469,2.2598,2.2629,2.2751,2.2759,2.2721,2.2727,2.2782,2.2777,2.2948,2.2974,2.2853,2.2855,2.2855,0,2.1578,2.1646,2.1755,2.1809,2.186,2.1947,2.2007,2.2065,2.2126,2.2233,2.2288,2.239,2.2475,2.2636,2.2708,2.2808,2.282,2.2873,2.2835,2.2821,2.2824,2.282,2.2829,2.288,2.2881,2.2881,2.2882,0,2.1682,2.1709,2.1793,2.1888,2.1959,2.2037,2.2115,2.2159,2.223,2.2299,2.2401,2.2467,2.2599,2.2702,2.2809,2.2865,2.2888,2.2893,2.2913,2.2901,2.2877,2.2893,2.274,2.2889,2.2889,2.2888,2.2888,2.2887,2.1749,2.1812,2.1899,2.1993,2.2058,2.2131,2.2199,2.2259,2.2345,2.2455,2.2485,2.2593,2.2684,2.2829,2.2887,2.2975,2.2969,2.2996,2.3003,2.3009,2.3012,2.2861,2.2995,2.2995,2.2995,2.2995,2.2995,0,2.1857,2.1915,2.2,2.2109,2.2183,2.2195,2.2284,2.2346,2.2441,2.2522,2.2605,2.2726,2.2827,2.2907,2.3012,2.3067,2.3081,2.3093,2.3091,2.3104,2.301,2.2984,2.3081,2.3081,2.3081,2.3081,2.3081,2.3081,2.1922,2.203,2.2068,2.221,2.2268,2.2373,2.2423,2.2493,2.2558,2.269,2.2774,2.2825,2.2908,2.3019,2.3114,2.3135,2.3174,2.3185,2.3209,2.312,2.311,2.3101,2.3077,2.3192,2.3192,2.3296,2.3296,2.3297]},{"header":{"parameterUnit":"m.s-1","parameterCategory":1,"la1":30.2991,"la2":30.254,"lo1":-89.0895,"lo2":-89.0444,"dy":0.0017,"dx":0.0017,"nx":28,"ny":28,"refTime":"2024-11-27T09:00:00:Z","depth":0,"parameterNumber":3,"parameterNumberName":"V-component_of_WINDS"},"data":[0,0,0,0,0,0,0,0,0,0,0,0,0,0,0,0,0,0,0,0,0,0,0,0,0,0,0,0,0,0,0,0,0,0,0,0,0,0,0,0,0,0,0,0,0,0,0,0,0,0,0,0,0,0,0,0,0,0,-4.0841,-4.0839,0,-4.0692,-4.069,-4.0688,-4.0753,-4.0757,-4.0761,-4.0764,-4.0591,-4.0584,-4.0576,0,0,0,0,0,0,0,0,0,0,0,0,0,-4.1166,-4.116,-4.0841,-4.0839,-4.0837,-4.0692,-4.069,-4.0688,-4.0753,-4.0757,-4.0762,-4.0766,-4.0594,-4.0585,-4.0575,0,0,0,0,0,0,0,0,0,0,0,0,0,-4.1021,-4.1158,-4.0841,-4.0853,-4.0852,-4.0692,-4.069,-4.0687,-4.0752,-4.0757,-4.0763,-4.0768,-4.0597,-4.0586,-4.0574,-4.0388,0,0,-4.0537,-4.0531,0,0,0,0,0,0,0,0,-4.1029,-4.1009,-4.0853,-4.0852,-4.0851,-4.0747,-4.0741,-4.0586,-4.075,-4.0789,-4.0764,-4.0771,-4.0637,-4.0622,-4.0582,-4.038,-4.0372,-4.0536,-4.0528,-4.0523,-4.052,0,0,0,0,0,0,0,-4.1039,-4.1016,-4.0781,-4.085,-4.0849,-4.086,-4.0845,-4.0712,-4.0683,-4.0786,-4.0791,-4.0773,-4.0638,-4.0593,-4.0578,-4.037,-4.0536,-4.0525,-4.0518,-4.0513,-4.0008,-4.0002,0,0,0,0,0,0,-4.1052,-4.1024,-4.0786,-4.0777,-4.0956,-4.085,-4.0833,-4.0774,-4.0685,-4.0677,-4.0769,-4.0777,-4.0611,-4.0592,-4.0572,-4.0348,-4.0523,-4.0512,-4.0505,-4.0014,-4.0006,-4.0,0,0,0,0,0,0,-4.1058,-4.103,-4.0792,-4.0902,-4.0872,-4.0838,-4.0771,-4.0769,-4.0724,-4.0672,-4.0665,-4.0729,-4.0615,-4.0589,-4.0435,-4.0343,-4.0506,-4.0495,-4.0021,-4.0012,-4.0003,-3.9899,0,0,0,0,0,0,-4.1067,-4.1032,-4.0964,-4.09,-4.0866,-4.0661,-4.0766,-4.0762,-4.0706,-4.0715,-4.0633,-4.0625,-4.0617,-4.0452,-4.0423,-4.033,-4.0486,-4.0029,-4.0017,-4.0006,-3.9911,-3.9888,-3.9868,0,0,0,0,0,-4.1079,-4.0937,-4.0961,-4.0932,-4.0782,-4.0656,-4.0636,-4.0636,-4.0698,-4.0627,-4.0595,-4.0627,-4.036,-4.0436,-4.0403,-4.0305,-4.0035,-4.002,-4.0007,-3.992,-3.9892,-3.9869,0,0,0,0,0,0,-4.0983,-4.0928,-4.0954,-4.0788,-4.0728,-4.0668,-4.0578,-4.0606,-4.0521,-4.0532,-4.053,-4.0511,-4.0351,-4.0313,-4.0399,-4.0121,-4.0206,-4.0184,-4.0151,-4.0124,-4.0103,-4.0113,-4.0476,0,0,0,0,0,-4.0945,-4.0853,-4.0807,-4.0665,-4.0634,-4.0612,-4.0557,-4.0563,-4.0496,-4.0469,-4.0424,-4.0354,-4.0254,-4.0187,-4.0092,-3.9907,-3.9889,-3.9824,-3.9802,-3.9785,-3.9765,-3.9663,-3.9633,-3.9954,-3.9954,-3.9955,0,0,-4.086,-4.0819,-4.0759,-4.0645,-4.0598,-4.0498,-4.0589,-4.0478,-4.0403,-4.045,-4.0303,-4.0268,-4.0189,-4.0019,-3.9941,-3.9982,-3.9674,-3.9767,-3.9754,-3.9743,-3.9646,-3.9616,-3.9589,-3.9945,-3.9946,-3.9948,0,0,-4.0655,-4.0616,-4.0494,-4.0448,-4.0379,-4.0366,-4.0337,-4.0274,-4.0255,-4.0109,-4.0143,-4.005,-3.9878,-3.9821,-3.9769,-3.9548,-3.9574,-3.9516,-3.9403,-3.9304,-3.9279,-3.9256,-3.9174,-3.9146,-3.9498,-3.9497,-3.9497,0,-4.0556,-4.0413,-4.0425,-4.0314,-4.0261,-4.0309,-4.0182,-4.0134,-4.0034,-3.9994,-4.0044,-3.9832,-3.9781,-3.9598,-3.9545,-3.9502,-3.9465,-3.9523,-3.9283,-3.926,-3.9239,-3.9161,-3.9131,-3.9491,-3.9492,-3.9492,-3.9493,0,-4.0295,-4.0195,-4.0103,-4.0015,-3.9952,-3.9833,-3.9823,-3.9757,-3.9769,-3.975,-3.9599,-3.9543,-3.9437,-3.9395,-3.9402,-3.9212,-3.924,-3.9286,-3.937,-3.9202,-3.9128,-3.9099,-3.9481,-3.9484,-3.9486,-3.9487,0,0,-4.002,-3.9945,-3.9911,-3.9872,-3.9802,-3.9721,-3.9604,-3.9509,-3.9451,-3.9382,-3.928,-3.9136,-3.918,-3.9121,-3.9123,-3.9037,-3.8863,-3.9093,-3.9091,-3.905,-3.8647,-3.8611,-3.8576,-3.8883,-3.8877,-3.8873,-3.8653,0,-3.9808,-3.9609,-3.9619,-3.943,-3.9336,-3.9381,-3.9279,-3.9222,-3.9201,-3.9114,-3.9089,-3.8987,-3.9053,-3.9018,-3.8936,-3.8902,-3.8781,-3.8919,-3.8782,-3.8777,-3.8797,-3.8538,-3.8499,-3.8294,-3.8625,-3.862,-3.8616,0,-3.9533,-3.9463,-3.9267,-3.9214,-3.9174,-3.9083,-3.8996,-3.8915,-3.885,-3.8841,-3.8779,-3.8796,-3.8672,-3.8765,-3.8591,-3.8685,-3.863,-3.8605,-3.8597,-3.858,-3.8684,-3.8511,-3.8229,-3.8197,-3.8572,-3.8575,-3.8578,0,-3.935,-3.9205,-3.907,-3.9035,-3.897,-3.8904,-3.8873,-3.8815,-3.8758,-3.8681,-3.8643,-3.855,-3.8497,-3.8423,-3.8413,-3.8482,-3.8238,-3.8329,-3.8222,-3.8222,-3.8164,-3.8167,-3.7865,-3.8135,-3.8135,-3.8136,-3.8137,0,-3.911,-3.8987,-3.8988,-3.8903,-3.8767,-3.8778,-3.864,-3.8614,-3.8563,-3.8471,-3.8503,-3.8415,-3.841,-3.8317,-3.8308,-3.8165,-3.8141,-3.8127,-3.8125,-3.8122,-3.8123,-3.8082,-3.8094,-3.8128,-3.813,-3.8131,-3.8133,0,-3.8879,-3.8875,-3.873,-3.8684,-3.8669,-3.857,-3.8526,-3.8444,-3.843,-3.8313,-3.8286,-3.8259,-3.8153,-3.8138,-3.8011,-3.8005,-3.7833,-3.7847,-3.7856,-3.7857,-3.7749,-3.7758,-3.7407,-3.736,-3.7664,-3.7661,-3.7659,0,-3.8725,-3.8633,-3.8578,-3.8523,-3.849,-3.8399,-3.8343,-3.835,-3.8289,-3.8212,-3.8137,-3.8037,-3.7956,-3.7783,-3.7748,-3.7652,-3.7662,-3.7546,-3.7647,-3.7647,-3.7656,-3.7661,-3.765,-3.7524,-3.7521,-3.7518,-3.7516,0,-3.845,-3.8454,-3.8375,-3.8296,-3.823,-3.8166,-3.8106,-3.8057,-3.8056,-3.7985,-3.7881,-3.7819,-3.7695,-3.7592,-3.7497,-3.7459,-3.7484,-3.7486,-3.7456,-3.7449,-3.7457,-3.7449,-3.7799,-3.7492,-3.7495,-3.7497,-3.7498,-3.7499,-3.825,-3.8171,-3.8122,-3.8033,-3.7991,-3.7935,-3.7856,-3.7835,-3.775,-3.7654,-3.7662,-3.7547,-3.7484,-3.7362,-3.7317,-3.7223,-3.726,-3.7216,-3.7204,-3.7193,-3.7181,-3.7477,-3.7206,-3.7207,-3.7207,-3.7208,-3.7208,0,-3.7975,-3.7947,-3.7866,-3.7785,-3.7714,-3.7756,-3.7692,-3.7628,-3.7528,-3.7472,-3.7395,-3.7274,-3.7176,-3.7137,-3.704,-3.6972,-3.6981,-3.6946,-3.6948,-3.6939,-3.7155,-3.719,-3.694,-3.694,-3.694,-3.694,-3.694,-3.694,-3.7823,-3.7691,-3.769,-3.7536,-3.7508,-3.7401,-3.7361,-3.7308,-3.7264,-3.7131,-3.7052,-3.7031,-3.698,-3.688,-3.6791,-3.6781,-3.6742,-3.67,-3.6695,-3.6896,-3.6923,-3.6949,-3.6982,-3.6692,-3.6692,-3.6487,-3.6485,-3.6483]}]]